Location: Napier
(39.4830°S, 176.9170°E)
Time: 02:37:22
(UTC+13:00)

HJ-1C - Pass Details

Date: 24 January 2019
Orbit: 438 x 450 km, 97.2° (Epoch: 23 February)

Event Time Altitude Azimuth Distance (km) Brightness Sun altitude
Rises 20:59:30 0° 166° (SSE) 2,497 7.4 -4.8°
Reaches altitude 10° 21:01:35 10° 162° (SSE) 1,612 6.4 -5.2°
Maximum altitude 21:05:01 65° 79° (E) 507 3.4 -5.8°
Drops below altitude 10° 21:08:23 10° 357° (N) 1,579 5.9 -6.3°
Sets 21:10:24 0° 353° (N) 2,438 6.9 -6.6°
